When you browse on this site, cookies collect data to enhance your experience and personalize the content and advertising you see.
Visit our Privacy Policy to learn more. By continuing to use the site, you agree to this use of cookies and data.
  • In Österreich
  • Länderverzeichnis
  • Für 7 Tage
  • Wassertemperatur
  • Satellitenkarten
  • Wetterkarte
  • News
  • Widgets
  • user-avatar
    Anmelden

    Stündliche Wetter Rangpur

    Heute, 20 April, Samstag

    Zeit Temperatur Niederschläge Wind Luftdruck Luftfeuchtigkeit
    00:00 +30°C° 0 mm 1 m/S 752 mmHg 34%
    01:00 +29°C° 0 mm 1 m/S 752 mmHg 35%
    02:00 +28°C° 0 mm 1 m/S 752 mmHg 37%
    03:00 +28°C° 0 mm 1 m/S 751 mmHg 38%
    04:00 +27°C° 0 mm 1 m/S 752 mmHg 41%
    05:00 +27°C° 0 mm 1 m/S 752 mmHg 43%
    06:00 +27°C° 0 mm 1 m/S 752 mmHg 40%
    07:00 +29°C° 0 mm 1 m/S 752 mmHg 37%
    08:00 +31°C° 0 mm 2 m/S 752 mmHg 33%
    09:00 +34°C° 0 mm 2 m/S 753 mmHg 29%
    10:00 +35°C° 0 mm 3 m/S 752 mmHg 27%
    11:00 +37°C° 0 mm 3 m/S 752 mmHg 25%
    12:00 +37°C° 0 mm 2 m/S 752 mmHg 24%
    13:00 +38°C° 0 mm 3 m/S 751 mmHg 23%
    14:00 +38°C° 0 mm 4 m/S 751 mmHg 21%
    15:00 +40°C° 0 mm 4 m/S 750 mmHg 20%
    16:00 +38°C° 0 mm 4 m/S 750 mmHg 23%
    17:00 +37°C° 0 mm 3 m/S 750 mmHg 26%
    18:00 +36°C° 0 mm 3 m/S 750 mmHg 29%
    19:00 +35°C° 0 mm 3 m/S 750 mmHg 30%
    20:00 +34°C° 0 mm 3 m/S 750 mmHg 31%
    21:00 +33°C° 0 mm 3 m/S 751 mmHg 32%
    22:00 +31°C° 0 mm 3 m/S 751 mmHg 33%
    23:00 +31°C° 0 mm 2 m/S 751 mmHg 34%

    Morgen, 21 April, Sonntag

    Zeit Temperatur Niederschläge Wind Luftdruck Luftfeuchtigkeit
    00:00 +30°C° 0 mm 1 m/S 751 mmHg 35%
    01:00 +29°C° 0 mm 2 m/S 751 mmHg 38%
    02:00 +29°C° 0 mm 2 m/S 750 mmHg 40%
    03:00 +28°C° 0 mm 2 m/S 750 mmHg 42%
    04:00 +28°C° 0 mm 2 m/S 750 mmHg 44%
    05:00 +27°C° 0 mm 2 m/S 750 mmHg 46%
    06:00 +27°C° 0 mm 3 m/S 751 mmHg 47%
    07:00 +28°C° 0 mm 3 m/S 751 mmHg 46%
    08:00 +29°C° 0 mm 4 m/S 752 mmHg 44%
    09:00 +32°C° 0 mm 5 m/S 752 mmHg 43%
    10:00 +33°C° 0 mm 4 m/S 752 mmHg 39%
    11:00 +35°C° 0 mm 3 m/S 752 mmHg 35%
    12:00 +37°C° 0 mm 3 m/S 752 mmHg 31%
    13:00 +38°C° 0 mm 3 m/S 751 mmHg 28%
    14:00 +38°C° 0 mm 2 m/S 750 mmHg 25%
    15:00 +39°C° 0 mm 2 m/S 750 mmHg 22%
    16:00 +38°C° 0 mm 2 m/S 749 mmHg 24%
    17:00 +38°C° 0 mm 2 m/S 749 mmHg 26%
    18:00 +37°C° 0 mm 2 m/S 749 mmHg 28%
    19:00 +35°C° 0 mm 3 m/S 749 mmHg 31%
    20:00 +34°C° 0 mm 3 m/S 750 mmHg 33%
    21:00 +33°C° 0 mm 3 m/S 750 mmHg 36%
    22:00 +31°C° 0 mm 3 m/S 751 mmHg 38%
    23:00 +30°C° 0 mm 3 m/S 751 mmHg 41%

    übermorgen, 22 April, Montag

    Zeit Temperatur Niederschläge Wind Luftdruck Luftfeuchtigkeit
    00:00 +30°C° 0 mm 3 m/S 751 mmHg 43%
    01:00 +29°C° 0 mm 3 m/S 750 mmHg 44%
    02:00 +29°C° 0 mm 4 m/S 750 mmHg 45%
    03:00 +29°C° 0 mm 4 m/S 750 mmHg 46%
    04:00 +29°C° 0 mm 4 m/S 750 mmHg 47%
    05:00 +29°C° 0 mm 4 m/S 751 mmHg 48%
    06:00 +28°C° 0 mm 4 m/S 751 mmHg 49%
    07:00 +29°C° 0.2 mm 4 m/S 752 mmHg 48%
    08:00 +29°C° 0.2 mm 4 m/S 752 mmHg 48%
    09:00 +30°C° 0.2 mm 5 m/S 753 mmHg 48%
    10:00 +33°C° 0 mm 4 m/S 752 mmHg 43%
    11:00 +35°C° 0 mm 4 m/S 752 mmHg 38%
    12:00 +37°C° 0 mm 4 m/S 752 mmHg 33%
    13:00 +37°C° 0 mm 3 m/S 751 mmHg 31%
    14:00 +38°C° 0 mm 2 m/S 750 mmHg 29%
    15:00 +39°C° 0 mm 2 m/S 750 mmHg 27%
    16:00 +39°C° 0 mm 1 m/S 750 mmHg 29%
    17:00 +37°C° 0 mm 1 m/S 750 mmHg 31%
    18:00 +36°C° 0 mm 1 m/S 750 mmHg 33%
    19:00 +35°C° 0.5 mm 1 m/S 750 mmHg 37%
    20:00 +33°C° 0.5 mm 1 m/S 751 mmHg 41%
    21:00 +31°C° 0.5 mm 2 m/S 752 mmHg 45%
    22:00 +30°C° 0 mm 2 m/S 752 mmHg 48%
    23:00 +30°C° 0 mm 3 m/S 752 mmHg 50%

    23 April, Dienstag

    Zeit Temperatur Niederschläge Wind Luftdruck Luftfeuchtigkeit
    00:00 +29°C° 0 mm 3 m/S 752 mmHg 53%
    01:00 +29°C° 0 mm 3 m/S 752 mmHg 56%
    02:00 +28°C° 0 mm 2 m/S 752 mmHg 58%
    03:00 +28°C° 0 mm 2 m/S 751 mmHg 61%
    04:00 +27°C° 0 mm 2 m/S 752 mmHg 62%
    05:00 +27°C° 0 mm 3 m/S 752 mmHg 64%
    06:00 +26°C° 0 mm 3 m/S 752 mmHg 66%
    07:00 +28°C° 0 mm 4 m/S 753 mmHg 61%
    08:00 +30°C° 0 mm 5 m/S 753 mmHg 55%
    09:00 +33°C° 0 mm 5 m/S 754 mmHg 49%
    10:00 +35°C° 0 mm 5 m/S 754 mmHg 44%
    11:00 +36°C° 0 mm 4 m/S 754 mmHg 39%
    12:00 +38°C° 0 mm 4 m/S 754 mmHg 34%
    13:00 +38°C° 0 mm 3 m/S 753 mmHg 32%
    14:00 +39°C° 0 mm 2 m/S 752 mmHg 31%
    15:00 +39°C° 0 mm 1 m/S 751 mmHg 29%
    16:00 +39°C° 0 mm 1 m/S 751 mmHg 31%
    17:00 +37°C° 0 mm 1 m/S 751 mmHg 33%
    18:00 +35°C° 0 mm 0 m/S 751 mmHg 35%
    19:00 +35°C° 0.1 mm 1 m/S 751 mmHg 37%
    20:00 +35°C° 0.1 mm 2 m/S 752 mmHg 40%
    21:00 +34°C° 0.1 mm 3 m/S 753 mmHg 42%
    22:00 +31°C° 0.7 mm 3 m/S 753 mmHg 49%
    23:00 +30°C° 0.7 mm 3 m/S 753 mmHg 56%

    24 April, Mittwoch

    Zeit Temperatur Niederschläge Wind Luftdruck Luftfeuchtigkeit
    00:00 +29°C° 0.7 mm 3 m/S 753 mmHg 63%
    01:00 +29°C° 0 mm 2 m/S 753 mmHg 63%
    02:00 +29°C° 0 mm 2 m/S 752 mmHg 63%
    03:00 +29°C° 0 mm 2 m/S 752 mmHg 63%
    04:00 +28°C° 0 mm 2 m/S 752 mmHg 65%
    05:00 +28°C° 0 mm 3 m/S 753 mmHg 67%
    06:00 +27°C° 0 mm 3 m/S 753 mmHg 68%
    07:00 +29°C° 0 mm 4 m/S 754 mmHg 62%
    08:00 +30°C° 0 mm 4 m/S 754 mmHg 56%
    09:00 +33°C° 0 mm 5 m/S 755 mmHg 49%
    10:00 +35°C° 0 mm 5 m/S 755 mmHg 44%
    11:00 +36°C° 0 mm 4 m/S 754 mmHg 39%
    12:00 +38°C° 0 mm 3 m/S 754 mmHg 34%
    13:00 +39°C° 0 mm 3 m/S 753 mmHg 32%
    14:00 +39°C° 0 mm 2 m/S 752 mmHg 31%
    15:00 +40°C° 0 mm 2 m/S 751 mmHg 29%
    16:00 +39°C° 0 mm 2 m/S 751 mmHg 32%
    17:00 +39°C° 0 mm 1 m/S 751 mmHg 34%
    18:00 +37°C° 0 mm 1 m/S 751 mmHg 36%
    19:00 +36°C° 0 mm 1 m/S 751 mmHg 38%
    20:00 +36°C° 0 mm 2 m/S 752 mmHg 39%
    21:00 +35°C° 0 mm 2 m/S 752 mmHg 40%
    22:00 +34°C° 0 mm 3 m/S 752 mmHg 43%
    23:00 +33°C° 0 mm 3 m/S 752 mmHg 45%

    25 April, Donnerstag

    Zeit Temperatur Niederschläge Wind Luftdruck Luftfeuchtigkeit
    00:00 +33°C° 0 mm 3 m/S 752 mmHg 47%
    01:00 +31°C° 0.5 mm 3 m/S 752 mmHg 52%
    02:00 +30°C° 0.5 mm 3 m/S 752 mmHg 56%
    03:00 +29°C° 0.5 mm 3 m/S 751 mmHg 60%
    04:00 +29°C° 0.3 mm 3 m/S 752 mmHg 62%
    05:00 +28°C° 0.3 mm 3 m/S 752 mmHg 65%
    06:00 +28°C° 0.3 mm 3 m/S 752 mmHg 67%
    07:00 +29°C° 0.3 mm 3 m/S 753 mmHg 63%
    08:00 +30°C° 0.3 mm 3 m/S 753 mmHg 60%
    09:00 +32°C° 0.3 mm 4 m/S 754 mmHg 56%
    10:00 +34°C° 0 mm 4 m/S 754 mmHg 51%
    11:00 +36°C° 0 mm 3 m/S 753 mmHg 45%
    12:00 +37°C° 0 mm 3 m/S 753 mmHg 40%
    13:00 +38°C° 0 mm 3 m/S 752 mmHg 37%
    14:00 +39°C° 0 mm 3 m/S 751 mmHg 35%
    15:00 +40°C° 0 mm 3 m/S 750 mmHg 32%
    16:00 +39°C° 0 mm 3 m/S 750 mmHg 34%
    17:00 +38°C° 0 mm 2 m/S 750 mmHg 36%
    18:00 +38°C° 0 mm 2 m/S 750 mmHg 39%
    19:00 +36°C° 0 mm 2 m/S 750 mmHg 40%
    20:00 +35°C° 0 mm 3 m/S 751 mmHg 41%
    21:00 +34°C° 0 mm 3 m/S 751 mmHg 42%
    22:00 +33°C° 0 mm 3 m/S 751 mmHg 45%
    23:00 +33°C° 0 mm 3 m/S 752 mmHg 49%
    Mehr zeigen